Not logged in
PANGAEA.
Data Publisher for Earth & Environmental Science

Long, Charles (2015): Radiosonde measurements from station Boulder (2013-04) [dataset]. NOAA - Air Resources Laboratory, Boulder, PANGAEA, https://doi.org/10.1594/PANGAEA.846311

Always quote citation above when using data! You can download the citation in several formats below.

Published: 2015-05-19DOI registered: 2015-06-16

RIS CitationBibTeX Citation ShareShow MapGoogle Earth

Other version:
Long, Charles (2015): BSRN Station-to-archive file for station Boulder (2013-04). ftp://ftp.bsrn.awi.de/bou/bou0413.dat.gz
Coverage:
Latitude: 40.050000 * Longitude: -105.007000
Date/Time Start: 2013-04-01T00:00:00 * Date/Time End: 2013-04-30T12:00:00
Minimum ALTITUDE: 15 m * Maximum ALTITUDE: 33048 m
Event(s):
BOU (Boulder) * Latitude: 40.050000 * Longitude: -105.007000 * Date/Time Start: 1992-01-01T00:00:00 * Date/Time End: 2016-06-30T00:00:00 * Elevation: 1577.0 m * Location: Colorado, United States of America * Method/Device: Monitoring station (MONS) * Comment: BSRN station no: 23; Surface type: grass; Topography type: flat, rural; Station scientist: David Longenecker (David.U.Longenecker@noaa.gov) ** Station closed in July 2016 **
Comment:
Start location: Denver, Colorado, USA; Distance from radiation site: 30 km
Parameter(s):
#NameShort NameUnitPrincipal InvestigatorMethod/DeviceComment
DATE/TIMEDate/TimeLong, CharlesGeocode
ALTITUDEAltitudemLong, CharlesGeocode
Pressure, at given altitudePPPPhPaLong, CharlesRadiosonde (RADIO)
Temperature, airTTT°CLong, CharlesRadiosonde (RADIO)
Dew/frost pointTdTdTd°CLong, CharlesRadiosonde (RADIO)
Wind directiondddegLong, CharlesRadiosonde (RADIO)
Wind speedffm/sLong, CharlesRadiosonde (RADIO)
Size:
14323 data points

Data

Download dataset as tab-delimited text — use the following character encoding:


Date/Time

Altitude [m]

PPPP [hPa]

TTT [°C]

TdTdTd [°C]

dd [deg]

ff [m/s]
2013-04-01T00:00731000
2013-04-01T00:00743925
2013-04-01T00:001459850
2013-04-01T00:00180781617.0-10.0
2013-04-01T00:0029857084.8-13.2
2013-04-01T00:0030807004.2-12.82953
2013-04-01T00:0033976731.6-16.4
2013-04-01T00:0035416611.2-22.8
2013-04-01T00:004076618-3.3-25.3
2013-04-01T00:005710500-18.3-31.331515
2013-04-01T00:005951484-20.3-32.3
2013-04-01T00:006183469-21.5-33.5
2013-04-01T00:006983420-28.5-39.5
2013-04-01T00:007330400-30.9-42.930017
2013-04-01T00:007673381-32.7-46.7
2013-04-01T00:009259302-46.1-58.1
2013-04-01T00:009310300-46.1-58.129017
2013-04-01T00:0010500250-55.3-65.329022
2013-04-01T00:0011385217-62.7-71.7
2013-04-01T00:0011733205-64.3-73.3
2013-04-01T00:0011880200-65.9-74.928524
2013-04-01T00:0011941198-66.3-74.3
2013-04-01T00:0012449182-67.3-75.3
2013-04-01T00:0012652176-64.9-73.9
2013-04-01T00:0012757173-65.1-74.1
2013-04-01T00:0012936168-62.1-71.1
2013-04-01T00:0013010166-59.5-68.5
2013-04-01T00:0013278159-61.1-70.1
2013-04-01T00:0013356157-60.5-69.5
2013-04-01T00:0013516153-61.7-70.7
2013-04-01T00:0013650150-60.3-69.327526
2013-04-01T00:0013692149-59.9-68.9
2013-04-01T00:0013862145-59.5-68.5
2013-04-01T00:0013992142-60.9-69.9
2013-04-01T00:0014169138-61.1-70.1
2013-04-01T00:0014260136-60.1-69.1
2013-04-01T00:0014399133-60.5-69.5
2013-04-01T00:0014637128-59.7-69.7
2013-04-01T00:0014836124-58.1-68.1
2013-04-01T00:0015696108-61.7-70.7
2013-04-01T00:0016170100-62.7-71.728523
2013-04-01T00:001667292-65.5-74.5
2013-04-01T00:001726083-59.5-69.5
2013-04-01T00:001795474-59.1-69.1
2013-04-01T00:001838070-60.7-70.730516
2013-04-01T00:001895963-65.1-74.1
2013-04-01T00:001914461-63.3-72.3
2013-04-01T00:001923560-59.5-69.5
2013-04-01T00:001950858-58.5-68.5
2013-04-01T00:001994154-59.5-69.5
2013-04-01T00:002047050-63.5-72.53359
2013-04-01T00:002077047-65.1-74.1
2013-04-01T00:002079647-64.3-73.3
2013-04-01T00:002082247-59.9-69.9
2013-04-01T00:002087646-58.9-68.9
2013-04-01T00:002092946-55.5-66.5
2013-04-01T00:002106845-54.7-65.7
2013-04-01T00:002202439-60.9-70.9
2013-04-01T00:002252336-58.7-68.7
2013-04-01T00:002280634-60.7-70.7
2013-04-01T00:002295333-57.9-68.9
2013-04-01T00:002367030-58.1-69.130011
2013-04-01T00:002406228-54.1-66.1
2013-04-01T00:002460325-56.9-67.9
2013-04-01T00:002521823-56.5-68.5
2013-04-01T00:002541022-55.7-67.7
2013-04-01T00:002549422-53.7-66.7
2013-04-01T00:002566821-52.5-65.5
2013-04-01T00:002626020-51.9-65.926011
2013-04-01T00:002812615-50.3-69.3
2013-04-01T00:002834714-47.5-69.5
2013-04-01T00:002857814-48.1-71.1
2013-04-01T00:002891713-45.9-71.9
2013-04-01T00:002922612-42.5-71.5
2013-04-01T00:002966411-42.3-74.3
2013-04-01T00:003019211-44.3-79.3
2013-04-01T00:003085010-41.1-78.125531
2013-04-01T00:00314909-40.1-77.1
2013-04-01T00:00318778-36.9-74.9
2013-04-01T00:00322898-37.9-75.9
2013-04-01T12:001321000
2013-04-01T12:00801925
2013-04-01T12:001514850
2013-04-01T12:0017848220.6-3.5
2013-04-01T12:0018628142.6-2.1
2013-04-01T12:0019228083.0-2.0
2013-04-01T12:002833721-1.7-6.7
2013-04-01T12:003076700-1.9-8.92206
2013-04-01T12:003201689-2.3-10.3
2013-04-01T12:003376674-0.5-10.5
2013-04-01T12:003531661-1.3-13.3
2013-04-01T12:004149611-6.7-15.7
2013-04-01T12:004551580-10.3-16.3
2013-04-01T12:004684570-11.5-18.5
2013-04-01T12:004860557-12.7-22.7
2013-04-01T12:005207532-15.5-28.5
2013-04-01T12:005436516-16.3-35.3
2013-04-01T12:005680500-17.9-36.926513
2013-04-01T12:005710498-18.1-37.1
2013-04-01T12:006311459-23.7-42.7
2013-04-01T12:006651438-25.3-39.3
2013-04-01T12:007310400-31.5-41.528012
2013-04-01T12:007967364-37.5-46.5
2013-04-01T12:008374343-39.9-48.9
2013-04-01T12:008906317-44.5-53.5
2013-04-01T12:009270300-46.7-55.726518
2013-04-01T12:009771278-49.5-57.5
2013-04-01T12:0010460250-54.9-62.928531
2013-04-01T12:0010933232-58.3-66.3
2013-04-01T12:0011821201-64.1-71.1
2013-04-01T12:0011860200-64.1-71.128531
2013-04-01T12:0012572178-63.5
2013-04-01T12:0012962167-64.3
2013-04-01T12:0013148162-62.7
2013-04-01T12:0013380156-62.9
2013-04-01T12:0013500153-61.5
2013-04-01T12:0013620150-61.327530
2013-04-01T12:0013873144-60.3
2013-04-01T12:0014274135-60.9
2013-04-01T12:0014414132-59.7
2013-04-01T12:0014905122-60.1
2013-04-01T12:0015008120-58.9
2013-04-01T12:0015607109-60.9
2013-04-01T12:0015722107-60.1
2013-04-01T12:0015839105-60.9
2013-04-01T12:0016150100-60.729026
2013-04-01T12:001642995-61.7
2013-04-01T12:001665392-60.1
2013-04-01T12:001715685-62.7
2013-04-01T12:001756979-60.7
2013-04-01T12:001836070-61.131019
2013-04-01T12:001872366-62.1
2013-04-01T12:001938759-59.1
2013-04-01T12:002006253-61.3
2013-04-01T12:002039950-58.5
2013-04-01T12:002045050-58.53159
2013-04-01T12:002087646-61.5
2013-04-01T12:002124344-61.5
2013-04-01T12:002150242-60.3
2013-04-01T12:002188139-61.3
2013-04-01T12:002213738-59.5
2013-04-01T12:002250735-60.5
2013-04-01T12:002277334-59.1
2013-04-01T12:002293833-60.3
2013-04-01T12:002312832-57.7
2013-04-01T12:002364030-59.12606
2013-04-01T12:002420527-60.3
2013-04-01T12:002465425-57.7
2013-04-01T12:002563721-59.3
2013-04-01T12:002596320-55.7
2013-04-01T12:002619020-56.328512
2013-04-01T12:002654818-56.7
2013-04-01T12:002714917-52.9
2013-04-01T12:002794415-52.9
2013-04-01T12:002852213-50.5
2013-04-01T12:002876213-47.5
2013-04-01T12:002954311-48.1
2013-04-01T12:002988511-44.9
2013-04-01T12:003072010-42.725532
2013-04-01T12:00309269-41.7
2013-04-01T12:00318188-41.5
2013-04-01T12:00321468-38.7
2013-04-01T12:00330487-38.9-67.9
2013-04-02T00:001131000
2013-04-02T00:00769925
2013-04-02T00:001471850
2013-04-02T00:0016818299.8-1.2
2013-04-02T00:0018628118.0-3.0
2013-04-02T00:0020677917.4-3.6
2013-04-02T00:0026417372.6-5.4
2013-04-02T00:003057700-0.3-7.31353
2013-04-02T00:003789638-5.5-10.0
2013-04-02T00:004177607-6.7-12.7
2013-04-02T00:004812559-11.9-16.9
2013-04-02T00:004880554-12.3-18.3
2013-04-02T00:005005545-12.9-24.9
2013-04-02T00:005089539-13.7-27.7
2013-04-02T00:005476512-16.7-26.7
2013-04-02T00:005549507-17.1-23.1
2013-04-02T00:005623502-17.7-23.7
2013-04-02T00:005660500-18.1-24.125515
2013-04-02T00:005705497-18.5-24.5
2013-04-02T00:005780492-18.7-28.7
2013-04-02T00:005826489-19.1-30.1
2013-04-02T00:006339456-22.9-31.9
2013-04-02T00:006731432-26.5-36.5
2013-04-02T00:007290400-31.5-37.526021
2013-04-02T00:007343397-31.9-36.9
2013-04-02T00:007948364-36.9-42.9
2013-04-02T00:008357343-38.5-47.5
2013-04-02T00:009215302-46.1-56.1
2013-04-02T00:009260300-46.3-56.326035
2013-04-02T00:009785277-49.5-59.5
2013-04-02T00:0010450250-54.9-63.926542
2013-04-02T00:0011058227-59.9-67.9
2013-04-02T00:0011840200-62.7-70.726039
2013-04-02T00:0011871199-62.5-70.5
2013-04-02T00:0012187189-63.7-71.7
2013-04-02T00:0012318185-62.5-70.5
2013-04-02T00:0012555178-62.7-70.7
2013-04-02T00:0012767172-61.1-69.1
2013-04-02T00:0012876169-59.5-67.5
2013-04-02T00:0013140162-58.7-67.7
2013-04-02T00:0013376156-59.3-68.3
2013-04-02T00:0013580151-58.7-67.7
2013-04-02T00:0013630150-59.1-68.128028
2013-04-02T00:0013885144-60.1-69.1
2013-04-02T00:0014016141-59.3-68.3
2013-04-02T00:0014105139-59.5-68.5
2013-04-02T00:0014287135-60.5-69.5
2013-04-02T00:0014380133-59.5-68.5
2013-04-02T00:0014619128-59.3-68.3
2013-04-02T00:0014817124-60.7-69.7
2013-04-02T00:0014918122-58.7-67.7
2013-04-02T00:0015074119-57.7-66.7
2013-04-02T00:0015398113-60.1-69.1
2013-04-02T00:0015681108-58.1-67.1
2013-04-02T00:0016170100-59.1-68.130020
2013-04-02T00:001776777-62.5-71.5
2013-04-02T00:001839070-60.3-69.329016
2013-04-02T00:001853468-59.5-69.5
2013-04-02T00:001930360-63.1-72.1
2013-04-02T00:002005653-57.9-67.9
2013-04-02T00:002041850-59.3-69.3
2013-04-02T00:002048050-59.3-69.332010
2013-04-02T00:002072348-57.7-67.7
2013-04-02T00:002157642-58.5-68.5
2013-04-02T00:002210038-61.9-71.9
2013-04-02T00:002305733-58.1-69.1
2013-04-02T00:002369030-58.5-69.53358
2013-04-02T00:002508924-58.5-70.5
2013-04-02T00:002587621-53.9-67.9
2013-04-02T00:002625020-54.9-69.93009
2013-04-02T00:002743716-55.1-72.1
2013-04-02T00:002800315-50.9-73.9
2013-04-02T00:002853414-52.9-77.9
2013-04-02T00:002901513-49.3-82.3
2013-04-02T00:002993511-47.5-82.5
2013-04-02T00:003017410-44.9-79.9
2013-04-02T00:003077010-43.1-79.125025
2013-04-02T00:00309769-41.9-77.9
2013-04-02T00:00315558-42.5-78.5
2013-04-02T00:00317878-40.3-77.3
2013-04-02T00:00321118-40.1-77.1
2013-04-02T00:00329127-34.3-73.3
2013-04-02T12:001351000
2013-04-02T12:00794925
2013-04-02T12:001498850
2013-04-02T12:0016408352.8-0.3
2013-04-02T12:0019738010.0-2.5
2013-04-02T12:0020537930.2-2.6
2013-04-02T12:002360763-1.5-2.1
2013-04-02T12:002668734-1.1-1.5
2013-04-02T12:003055700-3.5-4.12202
2013-04-02T12:003340675-5.5-5.9
2013-04-02T12:003422668-5.3-5.9
2013-04-02T12:003853632-7.9-8.8
2013-04-02T12:004165607-9.5-15.5
2013-04-02T12:004331594-10.1-16.1
2013-04-02T12:004740563-13.1-17.7
2013-04-02T12:005153533-16.5-23.5
2013-04-02T12:005496509-19.7-24.7
2013-04-02T12:005640500-20.7-26.725010
2013-04-02T12:005774491-21.7-27.7
2013-04-02T12:006408450-26.5-36.5
2013-04-02T12:006586439-27.1-41.1
2013-04-02T12:007250400-30.7-44.724520
2013-04-02T12:007268399-30.9-44.9
2013-04-02T12:008121353-38.7-48.7
2013-04-02T12:008806319-44.1-53.1
2013-04-02T12:009220300-47.1-56.124029
2013-04-02T12:009626282-49.7-58.7
2013-04-02T12:0010400250-56.5-64.524032
2013-04-02T12:0010579243-58.1-66.1
2013-04-02T12:0011114223-61.5-69.5
2013-04-02T12:0011283217-61.3-69.3
2013-04-02T12:0011790200-63.125023
2013-04-02T12:0012271185-60.7
2013-04-02T12:0012339183-57.7
2013-04-02T12:0012408181-57.1
2013-04-02T12:0012878168-57.5
2013-04-02T12:0012954166-56.3
2013-04-02T12:0013069163-56.3
2013-04-02T12:0013386155-59.1
2013-04-02T12:0013600150-59.726525
2013-04-02T12:0013684148-58.7
2013-04-02T12:0013942142-60.1
2013-04-02T12:0013986141-58.5
2013-04-02T12:0014121138-57.9
2013-04-02T12:0014353133-57.9
2013-04-02T12:0014642127-58.9
2013-04-02T12:0014843123-57.1
2013-04-02T12:0014946121-57.9
2013-04-02T12:0015432112-57.9
2013-04-02T12:0015836105-60.1
2013-04-02T12:0016140100-59.928520
2013-04-02T12:001672191-59.3
2013-04-02T12:001837070-61.330020
2013-04-02T12:001839769-61.3
2013-04-02T12:001914461-59.5
2013-04-02T12:001952858-61.1
2013-04-02T12:002024051-60.5
2013-04-02T12:002046050-59.130513
2013-04-02T12:002047349-58.9
2013-04-02T12:002081947-61.3
2013-04-02T12:002113044-59.3
2013-04-02T12:002185040-60.1
2013-04-02T12:002226937-59.1
2013-04-02T12:002339831-60.7
2013-04-02T12:002365030-58.931511
2013-04-02T12:002371329-58.7
2013-04-02T12:002408228-59.3
2013-04-02T12:002464725-55.5
2013-04-02T12:002621020-60.73006
2013-04-02T12:002633519-60.9
2013-04-02T12:002643119-58.3
2013-04-02T12:002666418-55.7
2013-04-02T12:002716417-52.9
2013-04-02T12:002750816-55.5
2013-04-02T12:002799615-53.9
2013-04-02T12:002852613-54.9
2013-04-02T12:002958611-47.7
2013-04-02T12:003028810-50.1
2013-04-02T12:003068010-47.527513
2013-04-02T12:00310209-44.7
2013-04-02T12:00316038-47.7
2013-04-02T12:00319148-45.5
2013-04-02T12:00321598-45.9
2013-04-02T12:00324157-42.5
2013-04-02T12:00325927-43.3
2013-04-02T12:00328687-40.5-63.5
2013-04-03T00:001591000
2013-04-03T00:00808925
2013-04-03T00:001501850
2013-04-03T00:0017858211.0-0.2
2013-04-03T00:002042795-0.7-1.5
2013-04-03T00:002296770-0.9-1.7
2013-04-03T00:003052700-5.3-6.71054
2013-04-03T00:003187688-6.1-7.7
2013-04-03T00:003267681-5.3-6.4
2013-04-03T00:003371672-5.7-7.0
2013-04-03T00:003618651-7.1-9.3
2013-04-03T00:003896628-9.1-10.6
2013-04-03T00:004158607-9.7-11.8
2013-04-03T00:004612572-13.3-16.5
2013-04-03T00:004705565-14.7-20.7
2013-04-03T00:004840555-15.3-21.3
2013-04-03T00:004922549-15.3-20.3
2013-04-03T00:005414514-19.3-23.2
2013-04-03T00:005530506-20.5-24.9
2013-04-03T00:005630500-21.9-29.91408
2013-04-03T00:005704495-22.7-34.7
2013-04-03T00:005793489-22.9-36.9
2013-04-03T00:006523442-28.3-42.3
2013-04-03T00:007004413-32.3-42.3
2013-04-03T00:007230400-33.7-45.72402
2013-04-03T00:007641377-36.7-49.7
2013-04-03T00:009180300-50.5-59.521512
2013-04-03T00:009556283-53.9-61.9
2013-04-03T00:0010340250-57.3-65.320014
2013-04-03T00:0010545242-57.3-65.3
2013-04-03T00:0010922228-55.5-63.5
2013-04-03T00:0011265216-56.7-65.7
2013-04-03T00:0011474209-55.9-64.9
2013-04-03T00:0011760200-57.1-66.12159
2013-04-03T00:0012251185-58.1-67.1
2013-04-03T00:0012424180-56.3-65.3
2013-04-03T00:0012712172-56.5-65.5
2013-04-03T00:0012786170-55.3-64.3
2013-04-03T00:0013014164-55.5-64.5
2013-04-03T00:0013092162-54.9-63.9
2013-04-03T00:0013373155-56.3-65.3
2013-04-03T00:0013590150-56.1-65.126514
2013-04-03T00:0014165137-55.5-64.5
2013-04-03T00:0014353133-56.9-65.9
2013-04-03T00:0014644127-57.1-66.1
2013-04-03T00:0015000120-58.7-67.7
2013-04-03T00:0015604109-57.1-66.1
2013-04-03T00:0015900104-57.5-66.5
2013-04-03T00:0016022102-58.5-67.5
2013-04-03T00:0016084101-57.7-66.7
2013-04-03T00:0016150100-58.3-67.328017
2013-04-03T00:001767878-60.3-69.3
2013-04-03T00:001781576-59.1-68.1
2013-04-03T00:001838070-60.1-69.128015
2013-04-03T00:001846969-60.7-69.7
2013-04-03T00:001886064-58.9-68.9
2013-04-03T00:001938359-59.3-69.3
2013-04-03T00:002009153-60.3-70.3
2013-04-03T00:002032851-62.1-71.1
2013-04-03T00:002048050-61.3-70.328516
2013-04-03T00:002054249-60.9-69.9
2013-04-03T00:002066948-58.3-68.3
2013-04-03T00:002122244-59.5-69.5
2013-04-03T00:002213438-56.7-66.7
2013-04-03T00:002286234-59.3-69.3
2013-04-03T00:002314432-56.3-66.3
2013-04-03T00:002370030-56.5-67.52103
2013-04-03T00:002457826-58.1-69.1
2013-04-03T00:002532323-55.1-66.1
2013-04-03T00:002560322-55.9-66.9
2013-04-03T00:002598820-53.5-65.5
2013-04-03T00:002627020-55.5-67.53204
2013-04-03T00:002643119-55.9-67.9
2013-04-03T00:002669818-54.5-67.5
2013-04-03T00:002708417-55.3-68.3
2013-04-03T00:002769516-52.1-67.1
2013-04-03T00:002874013-53.9-69.9
2013-04-03T00:002918312-48.9-68.9
2013-04-03T00:002961011-47.7-68.7
2013-04-03T00:002977911-45.5-66.5
2013-04-03T00:003050310-46.7-68.7
2013-04-03T00:003078010-46.1-69.126012
2013-04-03T00:00316328-43.7-69.7
2013-04-03T00:00318648-44.7-71.7
2013-04-03T00:00323567-41.1-69.1
2013-04-03T12:001691000
2013-04-03T12:00817925
2013-04-03T12:001511850
2013-04-03T12:0016888322.41.0
2013-04-03T12:0018248181.8-0.7
2013-04-03T12:0019338070.8-0.5
2013-04-03T12:002485753-1.1-2.5
2013-04-03T12:002971708-4.9-5.7
2013-04-03T12:003063700-4.7-5.23555
2013-04-03T12:003108696-4.5-5.1
2013-04-03T12:003441667-6.3-7.9
2013-04-03T12:004308596-12.7-13.3
2013-04-03T12:004580575-13.5-16.7
2013-04-03T12:005550505-21.1-24.2
2013-04-03T12:005630500-21.7-24.6158
2013-04-03T12:005838486-23.3-25.4
2013-04-03T12:005989476-24.5-30.5
2013-04-03T12:006190463-25.7-35.7
2013-04-03T12:006802425-31.1-37.1
2013-04-03T12:007240400-34.5-41.53512
2013-04-03T12:007908363-40.1-48.1
2013-04-03T12:009180300-51.1-58.12513
2013-04-03T12:009761274-56.3-62.3
2013-04-03T12:0010091260-58.9-64.9
2013-04-03T12:0010340250-57.1-63.14514
2013-04-03T12:0010416247-56.1-62.1
2013-04-03T12:0010785233-56.7-63.7
2013-04-03T12:0010867230-55.9-62.9
2013-04-03T12:0011091222-56.7-63.7
2013-04-03T12:0011474209-54.5-61.5
2013-04-03T12:0011760200-55.7-63.73159
2013-04-03T12:0011792199-56.1-64.1
2013-04-03T12:0012153188-55.1-63.1
2013-04-03T12:0012644174-56.7-64.7
2013-04-03T12:0013057163-56.1-64.1
2013-04-03T12:0013580150-56.9-65.929513
2013-04-03T12:0014108138-56.1-65.1
2013-04-03T12:0014341133-57.3-66.3
2013-04-03T12:0014437131-56.9-65.9
2013-04-03T12:0014682126-58.1-67.1
2013-04-03T12:0014988120-58.1-67.1
2013-04-03T12:0015200116-59.1-68.1
2013-04-03T12:0015706107-57.7-66.7
2013-04-03T12:0016140100-57.7-66.728513
2013-04-03T12:001738382-59.5-68.5
2013-04-03T12:001791775-58.1-68.1
2013-04-03T12:001838070-59.1-69.128514
2013-04-03T12:001840769-59.1-69.1
2013-04-03T12:001901263-57.3-67.3
2013-04-03T12:001941159-59.5-69.5
2013-04-03T12:001988155-58.1-68.1
2013-04-03T12:002049050-60.9-70.92205
2013-04-03T12:002088646-61.5-71.5
2013-04-03T12:002117044-59.5-69.5
2013-04-03T12:002170541-61.9-71.9
2013-04-03T12:002225837-58.9-69.9
2013-04-03T12:002283234-59.3-70.3
2013-04-03T12:002305633-56.7-68.7
2013-04-03T12:002361230-59.1-70.1
2013-04-03T12:002369030-58.9-70.93107
2013-04-03T12:002396928-56.7-68.7
2013-04-03T12:002472025-54.7-67.7
2013-04-03T12:002543122-56.5-70.5
2013-04-03T12:002613820-54.7-70.7
2013-04-03T12:002626020-55.3-71.33205
2013-04-03T12:002703517-56.5-73.5
2013-04-03T12:002748116-54.9-74.9
2013-04-03T12:002783815-55.3-75.3
2013-04-03T12:002817614-51.7-80.7
2013-04-03T12:002830814-51.7-82.7
2013-04-03T12:002844414-48.9-82.9
2013-04-03T12:002897413-47.5-82.5
2013-04-03T12:002944212-48.9-82.9
2013-04-03T12:002988911-46.3-81.3
2013-04-03T12:003036910-47.7-82.7
2013-04-03T12:003077010-45.9-80.925012
2013-04-03T12:00310429-44.5-80.5
2013-04-04T00:001201000
2013-04-04T00:00782925
2013-04-04T00:001491850
2013-04-04T00:00167183213.4-10.6
2013-04-04T00:0024087616.4-9.6
2013-04-04T00:0028467213.4-14.6
2013-04-04T00:0030897001.2-15.812
2013-04-04T00:003545661-2.7-16.7
2013-04-04T00:003910631-5.9-14.9
2013-04-04T00:004706569-13.3-24.3
2013-04-04T00:005298526-17.3-30.3
2013-04-04T00:005384520-17.9-33.9
2013-04-04T00:005680500-20.5-36.535013
2013-04-04T00:006723433-29.5-42.5
2013-04-04T00:006889423-29.9-43.9
2013-04-04T00:007290400-33.1-48.135011
2013-04-04T00:007593383-35.3-49.3
2013-04-04T00:008916315-47.5-57.5
2013-04-04T00:009240300-49.9-59.935012
2013-04-04T00:0010410250-58.1-67.133515
2013-04-04T00:0010588243-59.3-68.3
2013-04-04T00:0011179221-60.7-69.7
2013-04-04T00:0011349215-62.1-71.1
2013-04-04T00:0011800200-59.9-68.933017
2013-04-04T00:0011831199-59.9-68.9
2013-04-04T00:0011894197-58.7-67.7
2013-04-04T00:0012023193-57.7-66.7
2013-04-04T00:0012221187-59.1-68.1
2013-04-04T00:0012459180-59.7-68.7
2013-04-04T00:0012635175-58.7-67.7
2013-04-04T00:0012781171-56.1-65.1
2013-04-04T00:0013241159-57.5-66.5
2013-04-04T00:0013442154-57.1-66.1
2013-04-04T00:0013610150-57.9-66.930014
2013-04-04T00:0013694148-58.1-67.1
2013-04-04T00:0013866144-57.9-66.9
2013-04-04T00:0013999141-56.5-66.5
2013-04-04T00:0014367133-57.9-67.9
2013-04-04T00:0014511130-56.9-66.9
2013-04-04T00:0014809124-57.1-67.1
2013-04-04T00:0015015120-58.3-68.3
2013-04-04T00:0015337114-58.3-68.3
2013-04-04T00:0015676108-59.9-68.9
2013-04-04T00:0015792106-58.9-68.9
2013-04-04T00:0016170100-59.9-68.930016
2013-04-04T00:001716085-59.9-69.9
2013-04-04T00:001766778-61.5-70.5
2013-04-04T00:001839070-58.5-68.528015
2013-04-04T00:001844469-58.3-68.3
2013-04-04T00:001867366-59.9-69.9
2013-04-04T00:001911862-58.5-68.5
2013-04-04T00:001986355-59.9-69.9
2013-04-04T00:002005953-57.1-67.1
2013-04-04T00:002044950-54.9-65.9
2013-04-04T00:002050050-55.5-66.52755
2013-04-04T00:002085147-57.7-67.7
2013-04-04T00:002139443-56.7-67.7
2013-04-04T00:002221238-59.7-69.7
2013-04-04T00:002249836-57.9-68.9
2013-04-04T00:002301833-59.1-69.1
2013-04-04T00:002373030-54.5-65.52757
2013-04-04T00:002399128-53.7-65.7
2013-04-04T00:002564722-56.9-68.9
2013-04-04T00:002570422-55.1-67.1
2013-04-04T00:002591021-55.5-67.5
2013-04-04T00:002618720-51.7-65.7
2013-04-04T00:002632020-51.9-65.93304
2013-04-04T00:002665219-50.5-65.5
2013-04-04T00:002686018-51.7-66.7
2013-04-04T00:002729717-50.7-67.7
2013-04-04T00:002805415-52.7-71.7
2013-04-04T00:002871813-52.7-74.7
2013-04-04T00:002886013-51.1-75.1
2013-04-04T00:002915412-51.9-76.9
2013-04-04T00:002979111-47.9-79.9
2013-04-04T00:003069210-48.5-82.5
2013-04-04T00:003084010-46.1-81.127515
2013-04-04T00:00309079-45.5-80.5
2013-04-04T00:00316158-45.5-80.5
2013-04-04T00:00324997-41.7-77.7
2013-04-04T12:001541000
2013-04-04T12:00815925
2013-04-04T12:001524850
2013-04-04T12:0017188308.4-1.6
2013-04-04T12:0018188208.2-2.8
2013-04-04T12:0026967362.0-6.0
2013-04-04T12:003106700-0.3-8.33108
2013-04-04T12:003301683-1.5-9.5
2013-04-04T12:004772565-13.7-19.7
2013-04-04T12:005700500-19.7-31.731511
2013-04-04T12:005774495-20.1-32.1
2013-04-04T12:006846427-29.3-41.3
2013-04-04T12:007310400-31.9-43.934022
2013-04-04T12:007688379-33.7-46.7
2013-04-04T12:009187304-47.1-57.1
2013-04-04T12:009280300-47.7-57.734525
2013-04-04T12:0010460250-57.3-66.335024
2013-04-04T12:0010717240-58.5-67.5
2013-04-04T12:0011313218-63.3-71.3
2013-04-04T12:0011630207-63.5-71.5
2013-04-04T12:0011840200-65.333024
2013-04-04T12:0012152190-63.9-71.9
2013-04-04T12:0012282186-64.7-72.7
2013-04-04T12:0012381183-63.5-71.5
2013-04-04T12:0012482180-63.7-71.7
2013-04-04T12:0012551178-62.3-70.3
2013-04-04T12:0012656175-60.5-69.5
2013-04-04T12:0012946167-61.3-70.3
2013-04-04T12:0013252159-58.5-67.5
2013-04-04T12:0013452154-59.1-68.1
2013-04-04T12:0013576151-57.7-66.7
2013-04-04T12:0013630150-57.731025
2013-04-04T12:0013800146-57.3-66.3
2013-04-04T12:0014020141-57.5-66.5
2013-04-04T12:0014480131-60.5-69.5
2013-04-04T12:0014873123-59.1-68.1
2013-04-04T12:0015184117-61.3-70.3
2013-04-04T12:0015237116-61.1-70.1
2013-04-04T12:0015455112-59.1-68.1
2013-04-04T12:0016040102-58.9-67.9
2013-04-04T12:0016170100-57.730515
2013-04-04T12:001672691-60.5
2013-04-04T12:001719184-59.9
2013-04-04T12:001771778-61.5
2013-04-04T12:001806973-59.1
2013-04-04T12:001839070-60.130018
2013-04-04T12:001854368-61.1
2013-04-04T12:001980255-58.5
2013-04-04T12:002043550-62.1
2013-04-04T12:002049050-61.727512
2013-04-04T12:002057749-61.7
2013-04-04T12:002066648-59.1
2013-04-04T12:002086247-58.5
2013-04-04T12:002112245-54.9
2013-04-04T12:002212038-58.5
2013-04-04T12:002286534-55.9
2013-04-04T12:002372030-57.9104
2013-04-04T12:002395428-58.5
2013-04-04T12:002484425-55.5
2013-04-04T12:002550822-57.1
2013-04-04T12:002565022-55.7
2013-04-04T12:002591421-56.3
2013-04-04T12:002629020-55.13108
2013-04-04T12:002672018-53.3
2013-04-04T12:002700017-53.7
2013-04-04T12:002729417-51.9
2013-04-04T12:002797315-50.5
2013-04-04T12:002840914-51.5
2013-04-04T12:002873413-47.5
2013-04-04T12:002983211-46.7
2013-04-04T12:003012211-48.1
2013-04-04T12:003048810-46.5
2013-04-04T12:003082010-47.926513
2013-04-04T12:00308869-48.1
2013-04-04T12:00315159-46.5
2013-04-04T12:00319768-41.9
2013-04-04T12:00322228-40.9
2013-04-04T12:00328327-42.9
2013-04-04T12:00329247-41.9
2013-04-05T00:00951000
2013-04-05T00:00766925
2013-04-05T00:001483850
2013-04-05T00:00166283218.2-8.8
2013-04-05T00:00192080715.4-12.6
2013-04-05T00:0030727024.4-12.6
2013-04-05T00:0031037004.2-12.82455
2013-04-05T00:004264605-5.1-18.1
2013-04-05T00:004946554-10.5-26.5
2013-04-05T00:005015549-10.9-31.9
2013-04-05T00:005113542-11.5-33.5
2013-04-05T00:005649505-15.3-31.3
2013-04-05T00:005709501-15.7-28.7
2013-04-05T00:005740500-15.7-27.730515
2013-04-05T00:005846493-16.7-27.7
2013-04-05T00:006139474-18.3-29.3
2013-04-05T00:006574447-19.9-33.9
2013-04-05T00:007118415-24.7-37.7
2013-04-05T00:007380400-27.3-37.331017
2013-04-05T00:007488394-28.3-37.3
2013-04-05T00:008204356-34.3-43.3
2013-04-05T00:009390300-43.7-51.732028
2013-04-05T00:0010590250-53.1-62.132031
2013-04-05T00:0011980200-65.331531
2013-04-05T00:0012710177-71.7
2013-04-05T00:0012948170-70.9
2013-04-05T00:0013196163-71.5
2013-04-05T00:0013343159-69.5
2013-04-05T00:0013533154-69.9
2013-04-05T00:0013572153-69.1
2013-04-05T00:0013651151-66.1
2013-04-05T00:0013700150-64.730524
2013-04-05T00:0014122140-62.9
2013-04-05T00:0014300136-62.3
2013-04-05T00:0014483132-63.5
2013-04-05T00:0014624129-62.9
2013-04-05T00:0014768126-63.5
2013-04-05T00:0014866124-61.3
2013-04-05T00:0014967122-60.7
2013-04-05T00:0015333115-61.3-69.3
2013-04-05T00:0015387114-61.5
2013-04-05T00:0015839106-59.1
2013-04-05T00:0016018103-59.1
2013-04-05T00:0016210100-60.130518
2013-04-05T00:001644496-61.5
2013-04-05T00:001730783-59.7
2013-04-05T00:001834070-63.5
2013-04-05T00:001842070-62.730018
2013-04-05T00:001874466-62.7
2013-04-05T00:001899263-58.7
2013-04-05T00:001960657-61.5
2013-04-05T00:001971456-59.3
2013-04-05T00:002008753-59.9
2013-04-05T00:002035051-56.7
2013-04-05T00:002052050-57.328511
2013-04-05T00:002120944-59.5
2013-04-05T00:002153942-57.9
2013-04-05T00:002227637-57.9
2013-04-05T00:002249736-55.9
2013-04-05T00:002375030-56.73456
2013-04-05T00:002444026-56.5
2013-04-05T00:002485725-51.9
2013-04-05T00:002635020-52.32659
2013-04-05T00:002657919-52.9-85.9
2013-04-05T00:002724517-53.5
2013-04-05T00:002751016-51.5
2013-04-05T00:002782815-51.5
2013-04-05T00:002803615-47.9
2013-04-05T00:002852214-48.9
2013-04-05T00:002915113-45.5
2013-04-05T00:002968112-46.9
2013-04-05T00:003013811-45.7
2013-04-05T00:003090010-46.726011
2013-04-05T00:00315249-46.5
2013-04-05T00:00320588-42.7
2013-04-05T00:00323048-39.5
2013-04-05T00:00326507-38.9-75.9
2013-04-05T12:00531000
2013-04-05T12:00732925
2013-04-05T12:001457850
2013-04-05T12:00171182512.4-7.6
2013-04-05T12:00186481014.2-9.8
2013-04-05T12:00213878413.8-12.2
2013-04-05T12:0030777005.2-15.82905
2013-04-05T12:0031246964.8-16.2
2013-04-05T12:004243605-3.9-24.9
2013-04-05T12:004888557-8.3-31.3
2013-04-05T12:005386522-12.1-22.1
2013-04-05T12:005720500-14.3-26.325517
2013-04-05T12:005857491-15.1-27.1
2013-04-05T12:006264465-18.3-29.3
2013-04-05T12:006639442-21.1-28.1
2013-04-05T12:007118414-24.1-31.1
2013-04-05T12:007370400-26.3-30.924519
2013-04-05T12:007388399-26.3-30.8
2013-04-05T12:007700382-28.7-32.8
2013-04-05T12:009380300-43.1-47.625522
2013-04-05T12:0010580250-53.9-58.726026
2013-04-05T12:0011356221-61.1-65.9
2013-04-05T12:0011980200-65.526531
2013-04-05T12:0012922171-69.1
2013-04-05T12:0013136165-66.9
2013-04-05T12:0013247162-66.7
2013-04-05T12:0013555154-63.1
2013-04-05T12:0013710150-63.128028
2013-04-05T12:0014002143-64.1
2013-04-05T12:0014132140-62.7
2013-04-05T12:0014266137-60.1
2013-04-05T12:0014451133-58.9
2013-04-05T12:0014642129-59.5
2013-04-05T12:0015246117-63.1
2013-04-05T12:0015681109-62.5
2013-04-05T12:0015912105-61.1
2013-04-05T12:0016220100-62.328022
2013-04-05T12:001665393-63.1
2013-04-05T12:001700788-61.1
2013-04-05T12:001728684-63.1
2013-04-05T12:001843070-60.729514
2013-04-05T12:001894364-64.5
2013-04-05T12:001918661-61.1
2013-04-05T12:001998054-58.1
2013-04-05T12:002048050-60.9
2013-04-05T12:002052050-60.729011
2013-04-05T12:002086647-59.3
2013-04-05T12:002114945-60.5
2013-04-05T12:002146043-58.5
2013-04-05T12:002172741-59.5
2013-04-05T12:002221938-55.7
2013-04-05T12:002271935-57.9
2013-04-05T12:002280934-56.7
2013-04-05T12:002335731-59.3
2013-04-05T12:002363930-57.3
2013-04-05T12:002373030-57.53357
2013-04-05T12:002403128-57.9
2013-04-05T12:002514724-52.5
2013-04-05T12:002632020-51.93105
2013-04-05T12:002675418-52.1
2013-04-05T12:002729617-49.9
2013-04-05T12:002826914-52.9
2013-04-05T12:002853714-49.1
2013-04-05T12:003033410-47.5
2013-04-05T12:003071310-44.1
2013-04-05T12:003086010-44.527512
2013-04-05T12:00312739-44.7-61.7
2013-04-06T00:00660925
2013-04-06T00:001389850
2013-04-06T00:00168482120.0-10.0
2013-04-06T00:0027537239.6-12.4
2013-04-06T00:0030267007.6-13.42803
2013-04-06T00:004528580-6.7-16.7
2013-04-06T00:005409517-14.7-21.7
2013-04-06T00:005670500-16.7-25.725517
2013-04-06T00:006020477-19.9-27.9
2013-04-06T00:006192466-21.5-28.5
2013-04-06T00:006432451-23.3-29.3
2013-04-06T00:006579442-24.1-32.1
2013-04-06T00:007300400-29.9-37.926021
2013-04-06T00:007497389-31.7-39.7
2013-04-06T00:008783323-40.9-52.9
2013-04-06T00:009290300-45.5-57.525523
2013-04-06T00:0010077266-52.5-62.5
2013-04-06T00:0010249259-52.3-62.3
2013-04-06T00:0010480250-54.3-64.323523
2013-04-06T00:0010714241-55.3-65.3
2013-04-06T00:0011640208-60.5-69.5
2013-04-06T00:0011880200-61.5-70.524525
2013-04-06T00:0011942198-61.7-70.7
2013-04-06T00:0012132192-60.9-69.9
2013-04-06T00:0012429183-62.3-71.3
2013-04-06T00:0012565179-61.9-70.9
2013-04-06T00:0012635177-59.3-68.3
2013-04-06T00:0012778173-58.9-67.9
2013-04-06T00:0012851171-57.3-67.3
2013-04-06T00:0013308159-58.7-68.7
2013-04-06T00:0013427156-58.1-68.1
2013-04-06T00:0013590152-58.5-68.5
2013-04-06T00:0013670150-58.3-68.326531
2013-04-06T00:0013712149-58.3-68.3
2013-04-06T00:0013927144-56.3-66.3
2013-04-06T00:0014150139-57.3-67.3
2013-04-06T00:0014288136-56.3-66.3
2013-04-06T00:0014720127-57.9-67.9
2013-04-06T00:0015284116-61.9-71.9
2013-04-06T00:0015612110-61.5-71.5
2013-04-06T00:0015840106-62.9-72.9
2013-04-06T00:0016137101-62.1-72.1
2013-04-06T00:0016210100-61.3-71.326023
2013-04-06T00:001651595-60.1-70.1
2013-04-06T00:001708486-64.1-73.1
2013-04-06T00:001731583-61.5-71.5
2013-04-06T00:001747281-61.7-71.7
2013-04-06T00:001765879-58.5-68.5
2013-04-06T00:001815173-59.9-69.9
2013-04-06T00:001843070-57.5-68.529522
2013-04-06T00:001849369-56.7-67.7
2013-04-06T00:001952858-62.5-72.5
2013-04-06T00:001973256-59.1-70.1
2013-04-06T00:002042750-61.1-72.1
2013-04-06T00:002053050-60.5-71.529511
2013-04-06T00:002086247-59.9-70.9
2013-04-06T00:002110545-57.3-69.3
2013-04-06T00:002169641-59.5-70.5
2013-04-06T00:002192640-59.1-71.1
2013-04-06T00:002198939-56.5-68.5
2013-04-06T00:002205339-55.9-67.9
2013-04-06T00:002231637-57.5-69.5
2013-04-06T00:002280734-54.3-67.3
2013-04-06T00:002346031-56.9-69.9
2013-04-06T00:002376030-55.5-69.53507
2013-04-06T00:002378129-55.5-69.5
2013-04-06T00:002406228-57.3-71.3
2013-04-06T00:002438027-54.5-69.5
2013-04-06T00:002471725-55.3-71.3
2013-04-06T00:002486725-53.3-70.3
2013-04-06T00:002597921-52.3-77.3
2013-04-06T00:002636020-50.3-83.330010
2013-04-06T00:002679918-49.1-83.1
2013-04-06T00:002715717-50.5-84.5
2013-04-06T00:002773716-47.5-82.5
2013-04-06T00:002873713-51.3-84.3
2013-04-06T00:002943012-47.9-82.9
2013-04-06T00:003039410-46.7-81.7
2013-04-06T00:003070910-44.9-79.9
2013-04-06T00:003092010-45.3-80.326511
2013-04-06T00:00311229-46.1-81.1
2013-04-06T00:00316209-45.1-80.1
2013-04-06T12:00411000
2013-04-06T12:00723925
2013-04-06T12:001452850
2013-04-06T12:00162183310.0-10.0
2013-04-06T12:00165183010.2-11.8
2013-04-06T12:0018228139.0-10.0
2013-04-06T12:003040700-1.3-14.33206
2013-04-06T12:003468663-4.7-14.7
2013-04-06T12:003660647-4.5-22.5
2013-04-06T12:004094612-7.9-28.9
2013-04-06T12:005052540-13.9-36.9
2013-04-06T12:005640500-19.1-39.131017
2013-04-06T12:005987477-22.3-41.3
2013-04-06T12:006365453-23.1-43.1
2013-04-06T12:007104409-27.7-44.7
2013-04-06T12:007260400-29.3-46.330026
2013-04-06T12:009250300-46.1-58.129031
2013-04-06T12:0010430250-57.1-67.128533
2013-04-06T12:0011198221-62.7-71.7
2013-04-06T12:0011692204-60.7-69.7
2013-04-06T12:0011820200-61.5-70.528031
2013-04-06T12:0011945196-61.7-70.7
2013-04-06T12:0012106191-59.1-68.1
2013-04-06T12:0012306185-58.1-67.1
2013-04-06T12:0012622176-54.5-64.5
2013-04-06T12:0013034165-54.7-64.7
2013-04-06T12:0013191161-52.5-62.5
2013-04-06T12:0013435155-53.3-63.3
2013-04-06T12:0013650150-51.7-62.729024
2013-04-06T12:0013693149-51.5-62.5
2013-04-06T12:0014815125-57.3-67.3
2013-04-06T12:0015449113-58.7-68.7
2013-04-06T12:0015733108-58.1-68.1
2013-04-06T12:0016220100-61.7-70.726015
2013-04-06T12:001675891-64.3-73.3
2013-04-06T12:001691489-63.1-72.1
2013-04-06T12:001699188-58.1-68.1
2013-04-06T12:001728984-59.5-69.5
2013-04-06T12:001801774-56.3-66.3
2013-04-06T12:001845070-58.7-68.730511
2013-04-06T12:001900764-61.9-71.9
2013-04-06T12:001913462-61.3-71.3
2013-04-06T12:001924561-56.3-66.3
2013-04-06T12:002032651-62.9-71.9
2013-04-06T12:002055050-60.9-70.928512
2013-04-06T12:002096446-57.1-67.1
2013-04-06T12:002158342-59.9-69.9
2013-04-06T12:002213838-57.9-67.9
2013-04-06T12:002296734-58.5-68.5
2013-04-06T12:002309833-56.5-67.5
2013-04-06T12:002343031-55.7-66.7
2013-04-06T12:002376030-56.3-67.33454
2013-04-06T12:002384529-56.7-67.7
2013-04-06T12:002395329-55.7-66.7
2013-04-06T12:002459226-57.9-68.9
2013-04-06T12:002473825-55.5-66.5
2013-04-06T12:002555622-54.9-66.9
2013-04-06T12:002612320-49.3-63.3
2013-04-06T12:002636020-50.1-64.12655
2013-04-06T12:002730017-52.1-66.1
2013-04-06T12:002752916-50.5-65.5
2013-04-06T12:002788815-51.5-66.5
2013-04-06T12:002831314-49.3-66.3
2013-04-06T12:002862814-51.3-67.3
2013-04-06T12:002910613-50.3-68.3
2013-04-06T12:003019311-46.7-67.7
2013-04-06T12:003043710-44.7-66.7
2013-04-06T12:003090010-45.1-68.124511
2013-04-06T12:00318268-46.5-73.5
2013-04-07T00:00361000
2013-04-07T00:00713925
2013-04-07T00:001435850
2013-04-07T00:00167282615.4-10.6
2013-04-07T00:0023987578.2-10.8
2013-04-07T00:0030457002.4-12.62953
2013-04-07T00:003348674-0.5-12.5
2013-04-07T00:004018619-7.1-13.1
2013-04-07T00:004665569-12.7-14.7
2013-04-07T00:005033542-14.7-16.1
2013-04-07T00:005533507-18.3-20.8
2013-04-07T00:005650500-19.3-22.226018
2013-04-07T00:006357454-25.3-28.9
2013-04-07T00:006453448-26.1-32.1
2013-04-07T00:006815426-27.3-38.3
2013-04-07T00:007054412-29.1-41.1
2013-04-07T00:007159406-28.9-40.9
2013-04-07T00:007270400-29.9-41.927524
2013-04-07T00:008104355-37.9-45.9
2013-04-07T00:008440338-39.9-46.9
2013-04-07T00:009240300-47.1-53.128031
2013-04-07T00:009396293-47.3-53.3
2013-04-07T00:0010430250-55.5-61.528540
2013-04-07T00:0010741238-58.3-64.3
2013-04-07T00:0011036227-60.5-66.5
2013-04-07T00:0011287218-61.1-67.1
2013-04-07T00:0011820200-64.929032
2013-04-07T00:0011974195-64.3
2013-04-07T00:0012134190-61.3
2013-04-07T00:0012266186-60.1
2013-04-07T00:0012540178-58.7
2013-04-07T00:0012718173-59.7
2013-04-07T00:0012864169-59.5
2013-04-07T00:0013208160-55.7
2013-04-07T00:0013620150-56.127523
2013-04-07T00:0014334134-56.5
2013-04-07T00:0014526130-55.3
2013-04-07T00:0014676127-52.5
2013-04-07T00:0015423113-54.9
2013-04-07T00:0015828106-58.1
2013-04-07T00:0016200100-58.127020
2013-04-07T00:001721585-57.3
2013-04-07T00:001845070-60.12608
2013-04-07T00:001875066-61.3
2013-04-07T00:001888265-58.3
2013-04-07T00:001943159-60.5
2013-04-07T00:001956858-59.5
2013-04-07T00:001965457-56.9
2013-04-07T00:002013153-56.7
2013-04-07T00:002049450-58.9
2013-04-07T00:002056050-58.92458
2013-04-07T00:002093647-56.9
2013-04-07T00:002139343-58.9
2013-04-07T00:002168741-57.3
2013-04-07T00:002252236-58.7
2013-04-07T00:002266135-56.1
2013-04-07T00:002306433-55.3
2013-04-07T00:002376030-57.9
2013-04-07T00:002379030-57.92554
2013-04-07T00:002425027-54.1
2013-04-07T00:002457826-55.7
2013-04-07T00:002479925-52.9
2013-04-07T00:002560022-53.1
2013-04-07T00:002592321-49.7
2013-04-07T00:002620120-51.3
2013-04-07T00:002632820-49.7
2013-04-07T00:002640020-50.12557
2013-04-07T00:002723017-51.7
2013-04-07T00:002858214-48.5
2013-04-07T00:002881513-49.7
2013-04-07T00:003073610-46.9
2013-04-07T00:003095010-46.126517
2013-04-07T00:00315069-43.9
2013-04-07T00:00319578-44.5-61.5
2013-04-07T12:00361000
2013-04-07T12:00710925
2013-04-07T12:001430850
2013-04-07T12:0017908146.40.4
2013-04-07T12:0021077836.2-3.8
2013-04-07T12:0024037553.6-5.4
2013-04-07T12:0024787483.8-6.2
2013-04-07T12:003016700-0.9-8.928010
2013-04-07T12:003576652-5.9-10.9
2013-04-07T12:003807633-6.5-13.5
2013-04-07T12:004469581-10.7-20.7
2013-04-07T12:005610500-20.9-25.928513
2013-04-07T12:005654497-21.3-26.3
2013-04-07T12:005926479-22.1-28.1
2013-04-07T12:006396449-25.7-36.7
2013-04-07T12:006690431-28.1-41.1
2013-04-07T12:006977414-29.1-43.1
2013-04-07T12:007220400-31.3-43.328023
2013-04-07T12:008772319-45.1-51.1
2013-04-07T12:008856315-45.1-51.1
2013-04-07T12:009180300-47.7-54.727036
2013-04-07T12:009561283-50.9-57.9
2013-04-07T12:0010370250-54.5-61.527033
2013-04-07T12:0010709237-56.7-63.7
2013-04-07T12:0011564207-56.7-63.7
2013-04-07T12:0011718202-57.5-64.5
2013-04-07T12:0011780200-56.728032
2013-04-07T12:0011940195-57.1
2013-04-07T12:0012038192-55.9
2013-04-07T12:0012377182-56.5
2013-04-07T12:0012412181-55.7
2013-04-07T12:0012808170-57.7
2013-04-07T12:0013512152-57.9
2013-04-07T12:0013600150-58.527026
2013-04-07T12:0014397132-60.7
2013-04-07T12:0014637127-59.7
2013-04-07T12:0014686126-58.5
2013-04-07T12:0014889122-57.5
2013-04-07T12:0015207116-56.9
2013-04-07T12:0015372113-57.5
2013-04-07T12:0015428112-55.9
2013-04-07T12:0015898104-56.3
2013-04-07T12:0016150100-55.326522
2013-04-07T12:001708986-57.7
2013-04-07T12:001738882-57.1
2013-04-07T12:001747481-54.1
2013-04-07T12:001768378-52.7
2013-04-07T12:001842070-56.32306
2013-04-07T12:001886765-59.1
2013-04-07T12:001951658-57.1
2013-04-07T12:001994754-59.3
2013-04-07T12:002005154-57.9
2013-04-07T12:002054050-58.52705
2013-04-07T12:002068048-58.3
2013-04-07T12:002112945-60.9
2013-04-07T12:002133844-58.1
2013-04-07T12:002227237-59.5
2013-04-07T12:002250836-57.3
2013-04-07T12:002271835-57.9
2013-04-07T12:002316332-55.5
2013-04-07T12:002368330-58.3
2013-04-07T12:002376030-58.13104
2013-04-07T12:002419528-55.9
2013-04-07T12:002437927-56.5
2013-04-07T12:002481625-52.7
2013-04-07T12:002550822-54.7
2013-04-07T12:002619220-51.1
2013-04-07T12:002635020-52.33058
2013-04-07T12:002674818-53.5
2013-04-07T12:002692118-52.3
2013-04-07T12:002709917-53.5
2013-04-07T12:002724517-51.9
2013-04-07T12:002795315-50.5
2013-04-07T12:002842714-51.7
2013-04-07T12:002944912-47.3
2013-04-07T12:003054810-46.5-81.5
2013-04-08T00:00672925
2013-04-08T00:001393850
2013-04-08T00:00169382015.2-8.8
2013-04-08T00:00181780813.8-10.2
2013-04-08T00:0030037002.4-11.626510
2013-04-08T00:0032836760.2-13.8
2013-04-08T00:003582651-2.9-12.9
2013-04-08T00:003753637-3.5-14.5
2013-04-08T00:004615570-11.3-18.3
2013-04-08T00:004887550-13.1-24.1
2013-04-08T00:005281522-16.3-25.3
2013-04-08T00:005514506-18.3-31.3
2013-04-08T00:005610500-19.1-32.127522
2013-04-08T00:006065470-23.3-33.3
2013-04-08T00:006429447-26.3-36.3
2013-04-08T00:006658433-28.1-40.1
2013-04-08T00:007133405-31.7-40.7
2013-04-08T00:007230400-32.7-41.727021
2013-04-08T00:008113352-40.7-48.7
2013-04-08T00:008589328-43.7-50.7
2013-04-08T00:009180300-49.1-56.128540
2013-04-08T00:009790273-54.5-61.5
2013-04-08T00:0010350250-55.7-62.727549
2013-04-08T00:0010636239-55.9-62.9
2013-04-08T00:0011018225-57.5-64.5
2013-04-08T00:0011424211-56.3-63.3
2013-04-08T00:0011577206-53.9-61.9
2013-04-08T00:0011770200-54.1-62.128530
2013-04-08T00:0011802199-54.1-62.1
2013-04-08T00:0012232186-56.7-64.7
2013-04-08T00:0012335183-55.5-63.5
2013-04-08T00:0012656174-54.9-62.9
2013-04-08T00:0013070163-56.7-64.7
2013-04-08T00:0013600150-56.5-65.528033
2013-04-08T00:0014034140-58.7-67.7
2013-04-08T00:0014124138-58.1-67.1
2013-04-08T00:0014170137-56.7-65.7
2013-04-08T00:0014502130-56.1-65.1
2013-04-08T00:0014601128-54.7-63.7
2013-04-08T00:0014907122-54.5-63.5
2013-04-08T00:0015564110-57.1-66.1
2013-04-08T00:0016170100-59.5-68.524515
2013-04-08T00:001652294-60.3-69.3
2013-04-08T00:001676091-54.7-64.7
2013-04-08T00:001726884-56.7-66.7
2013-04-08T00:001754780-54.1-64.1
2013-04-08T00:001843070-58.1-68.126014
2013-04-08T00:001874266-59.7-69.7
2013-04-08T00:001879966-58.9-68.9
2013-04-08T00:001887665-55.3-65.3
2013-04-08T00:001905463-54.7-64.7
2013-04-08T00:002056050-61.3-71.32659
2013-04-08T00:002071148-58.7-68.7
2013-04-08T00:002160242-60.7-70.7
2013-04-08T00:002178241-56.3-67.3
2013-04-08T00:002227738-57.9-68.9
2013-04-08T00:002254936-55.7-66.7
2013-04-08T00:002288934-56.1-67.1
2013-04-08T00:002326932-54.1-66.1
2013-04-08T00:002378030-55.5-67.52357
2013-04-08T00:002449626-56.3-69.3
2013-04-08T00:002512224-52.1-67.1
2013-04-08T00:002638020-55.3-71.324514
2013-04-08T00:002641219-55.3-71.3
2013-04-08T00:002670919-52.1-72.1
2013-04-08T00:002709417-51.5-74.5
2013-04-08T00:002761916-53.5-77.5
2013-04-08T00:002859114-49.5-83.5
2013-04-08T00:002991111-49.9-83.9
2013-04-08T00:003056610-46.1-81.1
2013-04-08T00:003090010-46.3-81.326024
2013-04-08T00:00318288-43.7-79.7
2013-04-08T12:00661925
2013-04-08T12:001378850
2013-04-08T12:0016608226.8-2.2
2013-04-08T12:0017408147.8-6.2
2013-04-08T12:0018318059.0-5.0
2013-04-08T12:0020397859.8-8.2
2013-04-08T12:0029787002.6-14.42552
2013-04-08T12:0030826911.8-15.2
2013-04-08T12:003619646-2.3-14.3
2013-04-08T12:004446581-10.1-17.1
2013-04-08T12:004687563-11.9-17.9
2013-04-08T12:004796555-12.3-20.3
2013-04-08T12:005590500-19.1-27.124515
2013-04-08T12:005906479-22.1-28.1
2013-04-08T12:006329452-24.9-31.9
2013-04-08T12:007166402-32.5-37.1
2013-04-08T12:007200400-32.7-37.224021
2013-04-08T12:008646324-43.5-47.7
2013-04-08T12:009170300-48.3-52.925030
2013-04-08T12:0010190256-57.5-62.3
2013-04-08T12:0010340250-58.5-63.325039
2013-04-08T12:0011463209-58.5-63.3
2013-04-08T12:0011584205-58.3-63.2
2013-04-08T12:0011730200-56.925028
2013-04-08T12:0011762199-56.3
2013-04-08T12:0011858196-56.7
2013-04-08T12:0011989192-55.1
2013-04-08T12:0012089189-54.9
2013-04-08T12:0012509177-52.5
2013-04-08T12:0012693172-53.7
2013-04-08T12:0012882167-53.9
2013-04-08T12:0013077162-52.5
2013-04-08T12:0013197159-53.1
2013-04-08T12:0013445153-52.5
2013-04-08T12:0013570150-52.925031
2013-04-08T12:0013788145-53.9
2013-04-08T12:0013922142-53.7
2013-04-08T12:0014437131-55.3
2013-04-08T12:0014736125-54.1
2013-04-08T12:0015050119-55.1
2013-04-08T12:0015379113-55.3
2013-04-08T12:0015784106-57.7
2013-04-08T12:0015904104-56.3
2013-04-08T12:0016160100-56.530510
2013-04-08T12:001637996-56.5
2013-04-08T12:001651294-54.3
2013-04-08T12:001720584-58.1
2013-04-08T12:001783476-58.9
2013-04-08T12:001828671-55.5
2013-04-08T12:001842070-55.73104
2013-04-08T12:001920361-59.9
2013-04-08T12:001954758-57.5
2013-04-08T12:002025952-60.9
2013-04-08T12:002038051-58.1
2013-04-08T12:002053050-58.924510
2013-04-08T12:002124144-61.5
2013-04-08T12:002196239-60.5
2013-04-08T12:002225237-58.1
2013-04-08T12:002346931-59.9
2013-04-08T12:002373030-57.32907
2013-04-08T12:002377229-56.9
2013-04-08T12:002425527-58.5
2013-04-08T12:002441726-56.1
2013-04-08T12:002470625-56.7
2013-04-08T12:002490724-55.1
2013-04-08T12:002546722-55.9
2013-04-08T12:002631020-54.72605
2013-04-08T12:002677318-54.3
2013-04-08T12:002712617-55.3
2013-04-08T12:002765416-54.1
2013-04-08T12:002785515-52.3
2013-04-08T12:002907913-49.9
2013-04-08T12:003080010-50.725022
2013-04-08T12:00312719-51.1-71.1
2013-04-09T00:00585925
2013-04-09T00:001306850
2013-04-09T00:00166381517.2-2.8
2013-04-09T00:00221876312.8-6.2
2013-04-09T00:00232875311.2-6.8
2013-04-09T00:00243974311.0-8.0
2013-04-09T00:0029327006.6-10.41757
2013-04-09T00:003869623-2.1-14.1
2013-04-09T00:004510574-8.5-14.5
2013-04-09T00:004769555-10.3-18.3
2013-04-09T00:005308517-15.9-19.6
2013-04-09T00:005570500-17.5-21.921019
2013-04-09T00:007200400-30.7-36.721525
2013-04-09T00:008268343-39.9-46.9
2013-04-09T00:009170300-47.9-54.923029
2013-04-09T00:009643279-51.9-58.9
2013-04-09T00:009854270-52.7-59.7
2013-04-09T00:009950266-52.1-59.1
2013-04-09T00:0010196256-54.3-61.3
2013-04-09T00:0010350250-54.7-61.723038
2013-04-09T00:0011431211-54.9-61.9
2013-04-09T00:0011770200-57.1-64.123529
2013-04-09T00:0011897196-58.1-65.1
2013-04-09T00:0012059191-58.5-65.5
2013-04-09T00:0012126189-57.9-65.9
2013-04-09T00:0012226186-58.7-66.7
2013-04-09T00:0012293184-57.9-65.9
2013-04-09T00:0012362182-54.9-62.9
2013-04-09T00:0012433180-53.7-61.7
2013-04-09T00:0012541177-54.3-62.3
2013-04-09T00:0012614175-52.9-60.9
2013-04-09T00:0012954166-52.7-61.7
2013-04-09T00:0013072163-51.3-60.3
2013-04-09T00:0013315157-50.5-60.5
2013-04-09T00:0013357156-49.5-59.5
2013-04-09T00:0013484153-48.7-58.7
2013-04-09T00:0013620150-49.5-60.525021
2013-04-09T00:0013976142-51.7-62.7
2013-04-09T00:0014068140-51.3-62.3
2013-04-09T00:0014303135-53.1-64.1
2013-04-09T00:0014545130-53.9-64.9
2013-04-09T00:0014846124-56.1-67.1
2013-04-09T00:0015160118-57.1-68.1
2013-04-09T00:0015268116-56.5-67.5
2013-04-09T00:0015489112-57.9-67.9
2013-04-09T00:0015660109-57.9-67.9
2013-04-09T00:0015777107-57.1-68.1
2013-04-09T00:0015956104-58.7-68.7
2013-04-09T00:0016200100-59.1-69.124518
2013-04-09T00:001686489-60.3-70.3
2013-04-09T00:001695588-57.9-68.9
2013-04-09T00:001721785-56.1-67.1
2013-04-09T00:001749881-57.5-68.5
2013-04-09T00:001760879-55.9-66.9
2013-04-09T00:001845070-61.9-71.92656
2013-04-09T00:001860168-62.9-72.9
2013-04-09T00:001874866-60.1-70.1
2013-04-09T00:001943859-59.9-70.9
2013-04-09T00:001997454-57.9-68.9
2013-04-09T00:002009053-55.9-66.9
2013-04-09T00:002056050-57.9-68.91355
2013-04-09T00:002153042-61.1-72.1
2013-04-09T00:002161842-59.5-70.5
2013-04-09T00:002193640-60.3-71.3
2013-04-09T00:002223938-58.3-69.3
2013-04-09T00:002271535-59.5-70.5
2013-04-09T00:002280434-58.1-69.1
2013-04-09T00:002298633-58.9-69.9
2013-04-09T00:002371330-56.3-68.3
2013-04-09T00:002376030-56.5-68.52757
2013-04-09T00:002410728-56.3-68.3
2013-04-09T00:002454326-58.5-70.5
2013-04-09T00:002473625-56.5-68.5
2013-04-09T00:002530523-54.7-67.7
2013-04-09T00:002595721-57.9-70.9
2013-04-09T00:002607720-57.5-70.5
2013-04-09T00:002623120-54.5-68.5
2013-04-09T00:002633020-54.3-68.328020
2013-04-09T00:002642719-54.5-68.5
2013-04-09T00:002665919-52.3-68.3
2013-04-09T00:002726217-53.7-69.7
2013-04-09T00:002880813-52.5-72.5
2013-04-09T00:002955912-53.5-75.5
2013-04-09T00:003023510-49.3-76.3
2013-04-09T00:003081010-49.1-78.125031
2013-04-09T00:00314279-49.1-80.1
2013-04-09T00:00318768-46.5-77.5
2013-04-09T00:00325267-49.3-81.3
2013-04-09T12:001181000
2013-04-09T12:00772925
2013-04-09T12:001471850
2013-04-09T12:001949800-11.5-13.8
2013-04-09T12:002520742-15.5-17.4
2013-04-09T12:002633731-14.1-15.2
2013-04-09T12:002779717-13.9-14.6
2013-04-09T12:002961700-14.5-15.434512
2013-04-09T12:003257673-15.7-16.8
2013-04-09T12:003336666-15.3-16.2
2013-04-09T12:003579645-11.1-11.1
2013-04-09T12:003736632-6.9-6.9
2013-04-09T12:003785628-6.3-6.3
2013-04-09T12:003998611-7.3-7.4
2013-04-09T12:004126601-7.7-9.8
2013-04-09T12:004230593-8.1-10.4
2013-04-09T12:004864546-12.1-13.8
2013-04-09T12:005005536-13.3-14.9
2013-04-09T12:005162525-14.7-18.9
2013-04-09T12:005454505-17.3-24.3
2013-04-09T12:005540500-17.7-24.718524
2013-04-09T12:005797483-19.1-27.1
2013-04-09T12:007040407-29.9-35.9
2013-04-09T12:007170400-30.9-36.918529
2013-04-09T12:008745318-45.3-52.3
2013-04-09T12:009130300-46.9-54.918030
2013-04-09T12:009219296-46.7-54.7
2013-04-09T12:0010320250-54.7-62.719034
2013-04-09T12:0010580240-54.9-62.9
2013-04-09T12:0010688236-52.9-60.9
2013-04-09T12:0011023224-53.9-61.9
2013-04-09T12:0011226217-55.3-63.3
2013-04-09T12:0011558206-54.5-63.5
2013-04-09T12:0011652203-53.9-62.9
2013-04-09T12:0011750200-51.9-60.920527
2013-04-09T12:0011947194-52.1-61.1
2013-04-09T12:0012014192-49.9-59.9
2013-04-09T12:0012117189-49.3-59.3
2013-04-09T12:0012581176-51.1-63.1
2013-04-09T12:0012730172-50.5-62.5
2013-04-09T12:0013039164-52.1-65.1
2013-04-09T12:0013199160-51.5-64.5
2013-04-09T12:0013281158-50.5-64.5
2013-04-09T12:0013405155-51.7-65.7
2013-04-09T12:0013620150-51.7-65.722517
2013-04-09T12:0013751147-50.3-65.3
2013-04-09T12:0014068140-51.7-66.7
2013-04-09T12:0014598129-51.3-68.3
2013-04-09T12:0014905123-53.3-70.3
2013-04-09T12:0015503112-55.7-72.7
2013-04-09T12:0015676109-54.9-71.9
2013-04-09T12:0016097102-56.9-73.9
2013-04-09T12:0016230100-56.1-73.125016
2013-04-09T12:001723985-61.9-76.9
2013-04-09T12:001755880-62.5-76.5
2013-04-09T12:001767379-61.9-76.9
2013-04-09T12:001780877-57.9-73.9
2013-04-09T12:001836071-56.1-75.1
2013-04-09T12:001847070-56.7-74.728012
2013-04-09T12:001939260-61.5-77.5
2013-04-09T12:001987055-61.7-77.7
2013-04-09T12:001994855-59.5-76.5
2013-04-09T12:002013253-57.9-75.9
2013-04-09T12:002057050-60.7-77.71706
2013-04-09T12:002109645-64.7-79.7
2013-04-09T12:002168541-61.3-78.3
2013-04-09T12:002209839-62.5-78.5
2013-04-09T12:002266135-60.9-78.9
2013-04-09T12:002326132-62.9-79.9
2013-04-09T12:002373030-60.7-79.728012
2013-04-09T12:002385629-59.5-79.5
2013-04-09T12:002425027-59.9-80.9
2013-04-09T12:002457626-58.1-83.1
2013-04-09T12:002497024-59.5-83.5
2013-04-09T12:002531223-55.7-87.7
2013-04-09T12:002573421-56.1-88.1
2013-04-09T12:002585221-54.3-87.3
2013-04-09T12:002629020-55.3-87.324014
2013-04-09T12:002678318-57.9-89.9
2013-04-09T12:002837314-53.7-86.7
2013-04-09T12:002980611-56.1-88.1
2013-04-09T12:003063810-51.1-85.1
2013-04-09T12:003071010-50.7-84.725035
2013-04-09T12:00310449-50.1-84.1
2013-04-10T00:002331000
2013-04-10T00:00851925
2013-04-10T00:001513850
2013-04-10T00:001712828-11.3-14.0
2013-04-10T00:002311765-16.3-18.0
2013-04-10T00:002980700-19.7-21.233511
2013-04-10T00:003001698-19.9-21.3
2013-04-10T00:003260674-19.7-21.2
2013-04-10T00:003360665-16.7-17.7
2013-04-10T00:003485654-16.3-17.0
2013-04-10T00:003626642-13.7-13.7
2013-04-10T00:003732633-12.7-12.7
2013-04-10T00:003964614-12.9-12.9
2013-04-10T00:004343584-14.7-16.6
2013-04-10T00:004473574-15.5-19.6
2013-04-10T00:004685558-16.5-20.2
2013-04-10T00:004752553-17.3-21.3
2013-04-10T00:004847546-18.3-25.3
2013-04-10T00:005237518-21.1-27.1
2013-04-10T00:005352510-21.1-25.2
2013-04-10T00:005510500-21.7-25.51556
2013-04-10T00:005584495-22.3-26.1
2013-04-10T00:007110400-34.9-40.91408
2013-04-10T00:007739365-40.7-46.7
2013-04-10T00:008498326-45.7-52.7
2013-04-10T00:008580322-45.1-52.1
2013-04-10T00:009050300-46.9-55.91759
2013-04-10T00:009229292-46.7-56.7
2013-04-10T00:009819267-48.5-59.5
2013-04-10T00:0010173253-47.9-58.9
2013-04-10T00:0010260250-46.5-58.518013
2013-04-10T00:0010340247-45.9-57.9
2013-04-10T00:0010782231-48.3-60.3
2013-04-10T00:0010926226-47.3-59.3
2013-04-10T00:0011604204-45.9-58.9
2013-04-10T00:0011740200-46.3-59.322013
2013-04-10T00:0011976193-45.9-59.9
2013-04-10T00:0012185187-47.3-60.3
2013-04-10T00:0012400181-46.9-60.9
2013-04-10T00:0012510178-47.5-61.5
2013-04-10T00:0012852169-47.3-61.3
2013-04-10T00:0012970166-46.7-60.7
2013-04-10T00:0013380156-48.1-62.1
2013-04-10T00:0013508153-47.5-61.5
2013-04-10T00:0013640150-48.5-62.524512
2013-04-10T00:0013684149-48.9-62.9
2013-04-10T00:0013999142-48.7-62.7
2013-04-10T00:0014426133-51.1-64.1
2013-04-10T00:0014524131-50.9-63.9
2013-04-10T00:0014931123-52.9-65.9
2013-04-10T00:0015144119-52.9-65.9
2013-04-10T00:0015308116-54.3-67.3
2013-04-10T00:0015419114-53.7-66.7
2013-04-10T00:0015647110-54.7-66.7
2013-04-10T00:0015824107-53.9-66.9
2013-04-10T00:0016067103-54.7-67.7
2013-04-10T00:0016260100-54.1-67.124014
2013-04-10T00:001701788-55.7-67.7
2013-04-10T00:001801175-60.5-71.5
2013-04-10T00:001835871-58.9-70.9
2013-04-10T00:001852070-59.7-71.726515
2013-04-10T00:001886666-61.7-72.7
2013-04-10T00:001933461-59.1-71.1
2013-04-10T00:001966758-61.3-72.3
2013-04-10T00:002031652-61.3-72.3
2013-04-10T00:002061050-62.7-73.72406
2013-04-10T00:002072149-63.3-74.3
2013-04-10T00:002098947-63.1-74.1
2013-04-10T00:002110846-61.1-72.1
2013-04-10T00:002145243-63.1-74.1
2013-04-10T00:002166742-62.7-73.7
2013-04-10T00:002225138-60.7-72.7
2013-04-10T00:002236637-58.9-70.9
2013-04-10T00:002339031-60.7-72.7
2013-04-10T00:002378030-58.7-71.727511
2013-04-10T00:002437227-57.5-70.5
2013-04-10T00:002561322-59.1-72.1
2013-04-10T00:002578421-55.9-69.9
2013-04-10T00:002634020-55.9-69.925513
2013-04-10T00:002640419-56.1-70.1
2013-04-10T00:002656719-53.7-69.7
2013-04-10T00:002741216-56.9-71.9
2013-04-10T00:002804215-55.5-71.5
2013-04-10T00:002847114-56.5-72.5
2013-04-10T12:002451000
2013-04-10T12:00857925
2013-04-10T12:001512850
2013-04-10T12:001666833-12.9-15.1
2013-04-10T12:002211775-16.5-18.5
2013-04-10T12:002309765-15.5-17.3
2013-04-10T12:002589737-17.1-18.9
2013-04-10T12:002858711-16.7-18.4
2013-04-10T12:002932704-15.3-17.2
2013-04-10T12:002980700-15.1-17.135515
2013-04-10T12:003143685-14.3-16.6
2013-04-10T12:003210679-12.9-15.6
2013-04-10T12:003437659-13.7-16.0
2013-04-10T12:003695637-13.1-15.2
2013-04-10T12:003803628-13.7-15.9
2013-04-10T12:003937617-12.9-15.2
2013-04-10T12:004405580-14.9-17.5
2013-04-10T12:004563568-14.7-18.3
2013-04-10T12:004724556-15.1-22.1
2013-04-10T12:005055532-16.9-26.9
2013-04-10T12:005520500-20.9-30.93156
2013-04-10T12:007130400-34.9-43.93253
2013-04-10T12:007253393-35.9-44.9
2013-04-10T12:009030302-48.3-56.3
2013-04-10T12:009070300-48.3-56.33158
2013-04-10T12:009407285-48.3-56.3
2013-04-10T12:009547279-46.7-54.7
2013-04-10T12:009642275-47.1-56.1
2013-04-10T12:009715272-45.9-54.9
2013-04-10T12:009813268-45.7-54.7
2013-04-10T12:0010143255-46.1-55.1
2013-04-10T12:0010270250-47.1-56.12453
2013-04-10T12:0010457243-48.3-57.3
2013-04-10T12:0010539240-47.1-57.1
2013-04-10T12:0010848229-47.7-57.7
2013-04-10T12:0011112220-47.3-57.3
2013-04-10T12:0011172218-46.7-56.7
2013-04-10T12:0011750200-47.1-57.12206
2013-04-10T12:0012408181-47.9-58.9
2013-04-10T12:0012668174-47.3-58.3
2013-04-10T12:0013097163-49.3-60.3
2013-04-10T12:0013640150-50.1-61.12858
2013-04-10T12:0013861145-50.5-61.5
2013-04-10T12:0014278136-50.3-61.3
2013-04-10T12:0014570130-52.5-62.5
2013-04-10T12:0014926123-52.9-62.9
2013-04-10T12:0015032121-52.3-63.3
2013-04-10T12:0015471113-54.9-64.9
2013-04-10T12:0015999104-55.3-65.3
2013-04-10T12:0016260100-56.9-66.926511
2013-04-10T12:001697789-59.9-69.9
2013-04-10T12:001730184-58.1-68.1
2013-04-10T12:001788477-57.9-67.9
2013-04-10T12:001850070-59.5-69.526512
2013-04-10T12:001911663-60.9-69.9
2013-04-10T12:001952859-63.3-72.3
2013-04-10T12:001966558-61.1-70.1
2013-04-10T12:001990455-61.1-70.1
2013-04-10T12:002045651-64.7-73.7
2013-04-10T12:002058050-63.1-72.127514
2013-04-10T12:002087047-61.1-70.1
2013-04-10T12:002174241-63.7-72.7
2013-04-10T12:002198439-61.3-70.3
2013-04-10T12:002255236-62.1-71.1
2013-04-10T12:002306933-59.3-69.3
2013-04-10T12:002374030-61.5-71.52957
2013-04-10T12:002429827-63.5-72.5
2013-04-10T12:002534523-62.9-72.9
2013-04-10T12:002564522-62.1-72.1
2013-04-10T12:002581721-58.3-68.3
2013-04-10T12:002625020-57.3-68.327022
2013-04-10T12:002691518-56.9-67.9
2013-04-10T12:002713017-55.3-66.3
2013-04-10T12:002807215-56.5-68.5
2013-04-10T12:002842114-53.9-66.9
2013-04-10T12:002908112-57.1-70.1
2013-04-10T12:002954511-53.7-67.7
2013-04-10T12:003016510-54.5-70.5
2013-04-11T00:001971000
2013-04-11T00:00816925
2013-04-11T00:001479850
2013-04-11T00:001724824-5.9-11.9
2013-04-11T00:001886807-7.7-13.7
2013-04-11T00:002418753-12.3-14.3
2013-04-11T00:002592736-12.3-13.8
2013-04-11T00:002844712-13.5-14.9
2013-04-11T00:002876709-13.1-14.5
2013-04-11T00:002930704-10.3-10.9
2013-04-11T00:002977700-10.3-11.033514
2013-04-11T00:003110688-10.1-12.9
2013-04-11T00:003533651-12.1-16.6
2013-04-11T00:004188597-15.9-19.6
2013-04-11T00:004341585-15.1-19.0
2013-04-11T00:004629563-15.9-20.9
2013-04-11T00:004859546-17.7-21.7
2013-04-11T00:004928541-17.1-21.2
2013-04-11T00:005166524-18.9-23.0
2013-04-11T00:005520500-20.1-28.133514
2013-04-11T00:005699488-20.9-30.9
2013-04-11T00:006100462-23.9-31.9
2013-04-11T00:006470439-26.1-36.1
2013-04-11T00:007140400-32.1-41.134519
2013-04-11T00:007300391-33.5-41.5
2013-04-11T00:007872360-38.3-47.3
2013-04-11T00:008426332-40.3-50.3
2013-04-11T00:009084301-45.5-55.5
2013-04-11T00:009110300-45.5-55.531
2013-04-11T00:009473284-47.1-57.1
2013-04-11T00:0010320250-48.7-58.7538
2013-04-11T00:0010753234-49.1-59.1
2013-04-11T00:0010838231-48.5-58.5
2013-04-11T00:0011128221-49.3-59.3
2013-04-11T00:0011401212-47.5-57.5
2013-04-11T00:0011720202-46.7-57.7
2013-04-11T00:0011780200-47.1-58.134015
2013-04-11T00:0012049192-47.3-58.3
2013-04-11T00:0012582177-50.1-60.1
2013-04-11T00:0012807171-50.3-60.3
2013-04-11T00:0013040165-49.5-60.5
2013-04-11T00:0013446155-51.7-61.7
2013-04-11T00:0013670150-52.1-62.13008
2013-04-11T00:0013844146-52.3-62.3
2013-04-11T00:0013888145-51.9-61.9
2013-04-11T00:0014161139-52.7-62.7
2013-04-11T00:0014208138-52.1-62.1
2013-04-11T00:0014446133-53.1-63.1
2013-04-11T00:0015001122-52.7-62.7
2013-04-11T00:0015161119-53.7-63.7
2013-04-11T00:0015380115-53.5-63.5
2013-04-11T00:0015722109-55.1-65.1
2013-04-11T00:0015840107-54.3-64.3
2013-04-11T00:0016207101-56.7-66.7
2013-04-11T00:0016280100-56.1-66.130012
2013-04-11T00:001814474-60.5-69.5
2013-04-11T00:001852070-60.9-69.926016
2013-04-11T00:001985056-60.1-69.1
2013-04-11T00:002042251-63.3-72.3
2013-04-11T00:002061050-62.1-71.12704
2013-04-11T00:002097847-62.3-71.3
2013-04-11T00:002176941-64.1-73.1
2013-04-11T00:002196540-61.9-70.9
2013-04-11T00:002251236-61.9-70.9
2013-04-11T00:002284234-58.7-68.7
2013-04-11T00:002338631-59.3-69.3
2013-04-11T00:002348531-57.9-67.9
2013-04-11T00:002372930-59.7-69.7
2013-04-11T00:002378030-59.7-69.72907
2013-04-11T00:002462326-60.5-70.5
2013-04-11T00:002489125-58.1-68.1
2013-04-11T00:002549222-59.7-69.7
2013-04-11T00:002594621-58.9-68.9
2013-04-11T00:002632020-55.7-65.726017
2013-04-11T00:002727217-58.1-68.1
2013-04-11T00:002764916-57.3-68.3
2013-04-11T00:002788815-54.9-65.9
2013-04-11T00:002848314-58.1-69.1
2013-04-11T00:002870813-57.7-68.7
2013-04-11T00:002982411-52.1-66.1
2013-04-11T00:002993811-50.1-64.1
2013-04-11T00:003075010-49.7-64.725527
2013-04-11T00:00311549-49.3-65.3
2013-04-11T12:001051000
2013-04-11T12:00734925
2013-04-11T12:001408850
2013-04-11T12:001668822-5.5-9.0
2013-04-11T12:001726816-5.3-9.8
2013-04-11T12:001773811-4.1-9.1
2013-04-11T12:0018428040.8-6.2
2013-04-11T12:0019227961.0-8.0
2013-04-11T12:0019737912.4-7.6
2013-04-11T12:0020767813.2-8.8
2013-04-11T12:002958700-3.1-12.132517
2013-04-11T12:003151683-4.7-12.7
2013-04-11T12:004332586-13.7-15.8
2013-04-11T12:004502573-14.3-15.6
2013-04-11T12:005449505-18.5-20.7
2013-04-11T12:005530500-19.1-21.634526
2013-04-11T12:005831480-21.5-23.9
2013-04-11T12:005939473-20.5-23.0
2013-04-11T12:006241454-21.9-26.0
2013-04-11T12:006807420-26.1-30.6
2013-04-11T12:006928413-26.9-32.9
2013-04-11T12:007033407-26.5-36.5
2013-04-11T12:007104403-26.1-38.1
2013-04-11T12:007160400-26.3-38.331533
2013-04-11T12:007306392-26.7-37.7
2013-04-11T12:009180300-42.9-50.930031
2013-04-11T12:009687278-47.7-54.7
2013-04-11T12:0010051263-49.3-56.3
2013-04-11T12:0010380250-52.5-59.529036
2013-04-11T12:0010406249-52.7-59.7
2013-04-11T12:0010670239-53.3-60.3
2013-04-11T12:0011312216-58.3-65.3
2013-04-11T12:0011489210-57.7-64.7
2013-04-11T12:0011800200-59.3-66.329023
2013-04-11T12:0011958195-59.5
2013-04-11T12:0012088191-58.1
2013-04-11T12:0012154189-55.9
2013-04-11T12:0012290185-53.9
2013-04-11T12:0012830170-55.3
2013-04-11T12:0013137162-55.1
2013-04-11T12:0013337157-53.7
2013-04-11T12:0013630150-54.1-62.129513
2013-04-11T12:0013716148-54.3
2013-04-11T12:0013847145-53.7
2013-04-11T12:0013981142-54.5
2013-04-11T12:0014026141-52.7
2013-04-11T12:0014118139-51.5
2013-04-11T12:0014649128-53.5
2013-04-11T12:0014853124-52.3
2013-04-11T12:0015559111-57.3
2013-04-11T12:0015674109-55.9
2013-04-11T12:0015851106-54.9
2013-04-11T12:0016230100-56.1-64.127515
2013-04-11T12:001703588-59.1
2013-04-11T12:001783877-58.5
2013-04-11T12:001847070-61.724012
2013-04-11T12:001856868-62.1
2013-04-11T12:001864968-61.1
2013-04-11T12:001937060-62.9
2013-04-11T12:001982456-61.9
2013-04-11T12:002025452-63.5
2013-04-11T12:002049350-62.9
2013-04-11T12:002055050-62.126514
2013-04-11T12:002065049-60.5
2013-04-11T12:002121844-60.1
2013-04-11T12:002193240-62.9
2013-04-11T12:002304933-59.3
2013-04-11T12:002372030-61.127513
2013-04-11T12:002374129-61.1
2013-04-11T12:002480225-60.1
2013-04-11T12:002562422-57.5
2013-04-11T12:002626020-58.926016
2013-04-11T12:002709217-60.9
2013-04-11T12:002757616-55.9
2013-04-11T12:002927212-55.9
2013-04-11T12:002969811-52.7
2013-04-11T12:002992311-53.5
2013-04-11T12:003040210-49.9
2013-04-11T12:003067010-51.324020
2013-04-11T12:00310709-51.7
2013-04-11T12:00312829-46.7-62.7
2013-04-12T00:00901000
2013-04-12T00:00736925
2013-04-12T00:001427850
2013-04-12T00:0017108217.0-1.0
2013-04-12T00:0019627964.6-2.4
2013-04-12T00:002505744-0.5-3.3
2013-04-12T00:002994700-3.9-5.33008
2013-04-12T00:003073693-4.7-5.7
2013-04-12T00:003384666-6.3-7.1
2013-04-12T00:003657643-7.7-9.9
2013-04-12T00:004126605-11.1-13.9
2013-04-12T00:004408583-13.7-15.6
2013-04-12T00:004632566-15.1-18.4
2013-04-12T00:004902546-16.7-18.7
2013-04-12T00:005423509-21.3-27.3
2013-04-12T00:005560500-22.5-31.531521
2013-04-12T00:005589498-22.9-31.9
2013-04-12T00:006152461-24.3-38.3
2013-04-12T00:006855418-30.1-43.1
2013-04-12T00:007170400-32.3-44.331019
2013-04-12T00:007603376-34.9-45.9
2013-04-12T00:009140300-47.5-56.529021
2013-04-12T00:009430287-50.1-58.1
2013-04-12T00:0010265252-56.5-64.5
2013-04-12T00:0010320250-56.5-64.527522
2013-04-12T00:0010552241-56.5-64.5
2013-04-12T00:0010605239-55.3-63.3
2013-04-12T00:0010685236-55.5-63.5
2013-04-12T00:0010849230-54.1-62.1
2013-04-12T00:0011221217-54.1-62.1
2013-04-12T00:0011587205-51.1-60.1
2013-04-12T00:0011750200-52.528016
2013-04-12T00:0011913195-53.7
2013-04-12T00:0011979193-53.5
2013-04-12T00:0012114189-52.1
2013-04-12T00:0012183187-50.3
2013-04-12T00:0012324183-49.7
2013-04-12T00:0012615175-50.7
2013-04-12T00:0012727172-50.5-59.5
2013-04-12T00:0012765171-50.3
2013-04-12T00:0012958166-51.5
2013-04-12T00:0013486153-51.5
2013-04-12T00:0013620150-52.329523
2013-04-12T00:0014249136-54.3
2013-04-12T00:0014440132-53.1
2013-04-12T00:0014587129-53.9
2013-04-12T00:0014738126-51.9
2013-04-12T00:0015106119-53.5
2013-04-12T00:0015780107-58.7
2013-04-12T00:0016080102-58.1
2013-04-12T00:0016210100-58.728514
2013-04-12T00:001648695-58.1
2013-04-12T00:001680191-59.5
2013-04-12T00:001706387-54.5
2013-04-12T00:001801075-60.9
2013-04-12T00:001834171-60.7
2013-04-12T00:001845070-59.72806
2013-04-12T00:001855868-57.5
2013-04-12T00:001919762-61.7
2013-04-12T00:001933860-60.7
2013-04-12T00:001954558-61.5
2013-04-12T00:001966257-59.9
2013-04-12T00:002055050-62.125011
2013-04-12T00:002070048-62.5
2013-04-12T00:002086647-61.7
2013-04-12T00:002098546-58.5
2013-04-12T00:002208039-60.5
2013-04-12T00:002237637-57.5
2013-04-12T00:002295734-58.5
2013-04-12T00:002341931-55.5
2013-04-12T00:002375030-58.12758
2013-04-12T00:002411828-56.3
2013-04-12T00:002484625-60.3
2013-04-12T00:002533523-58.7
2013-04-12T00:002625920-59.3
2013-04-12T00:002630020-59.127017
2013-04-12T00:002672618-54.5
2013-04-12T00:002791515-57.5
2013-04-12T00:002821014-51.7
2013-04-12T00:002940112-53.9
2013-04-12T00:002977611-53.7
2013-04-12T00:003017710-50.9-63.9
2013-04-12T12:00951000
2013-04-12T12:00749925
2013-04-12T12:001449850
2013-04-12T12:0017188223.2-1.8
2013-04-12T12:0020787861.0-6.0
2013-04-12T12:002483747-2.3-3.0
2013-04-12T12:002622734-1.5-2.4
2013-04-12T12:002808717-1.9-6.5
2013-04-12T12:003008700-3.5-8.22859
2013-04-12T12:003742637-9.5-12.1
2013-04-12T12:003851628-9.9-12.8
2013-04-12T12:004074610-10.3-17.3
2013-04-12T12:004290593-12.1-20.1
2013-04-12T12:004617568-14.9-20.9
2013-04-12T12:004886548-16.7-29.7
2013-04-12T12:005220524-19.3-30.3
2013-04-12T12:005580500-20.3-31.329020
2013-04-12T12:005774487-21.3-30.3
2013-04-12T12:006143463-24.3-31.3
2013-04-12T12:006269455-25.5-30.2
2013-04-12T12:006462443-27.1-31.0
2013-04-12T12:006809422-29.5-33.4
2013-04-12T12:007048408-30.9-36.9
2013-04-12T12:007190400-32.1-38.128021
2013-04-12T12:009150300-49.1-55.128025
2013-04-12T12:009172299-49.5-55.5
2013-04-12T12:0010320250-57.9-63.928024
2013-04-12T12:0010550241-59.5-65.5
2013-04-12T12:0010926227-57.5-63.5
2013-04-12T12:0011209217-57.5-63.5
2013-04-12T12:0011297214-56.3-62.3
2013-04-12T12:0011416210-56.3-62.3
2013-04-12T12:0011477208-55.3-61.3
2013-04-12T12:0011695201-53.9-60.9
2013-04-12T12:0011730200-53.728521
2013-04-12T12:0011892195-53.7
2013-04-12T12:0011958193-52.3
2013-04-12T12:0012230185-53.5
2013-04-12T12:0012335182-52.5
2013-04-12T12:0012406180-52.5
2013-04-12T12:0012515177-51.1
2013-04-12T12:0012739171-50.9
2013-04-12T12:0012893167-49.7
2013-04-12T12:0013051163-50.1
2013-04-12T12:0013172160-48.7
2013-04-12T12:0013466153-47.9
2013-04-12T12:0013600150-48.327519
2013-04-12T12:0013822145-49.1
2013-04-12T12:0014238136-52.1
2013-04-12T12:0014579129-52.5
2013-04-12T12:0015204117-55.3
2013-04-12T12:0015885105-60.1
2013-04-12T12:0016005103-60.3
2013-04-12T12:0016200100-58.526524
2013-04-12T12:001747081-60.1
2013-04-12T12:001760979-58.7
2013-04-12T12:001811373-60.7
2013-04-12T12:001843070-59.728515
2013-04-12T12:001846669-59.9
2013-04-12T12:001861268-57.9
2013-04-12T12:001889565-59.1
2013-04-12T12:001900263-58.1
2013-04-12T12:001922161-59.7
2013-04-12T12:002006753-58.1
2013-04-12T12:002054050-59.32608
2013-04-12T12:002099146-60.9
2013-04-12T12:002145043-58.7
2013-04-12T12:002197839-59.5
2013-04-12T12:002242037-57.3
2013-04-12T12:002321032-61.5
2013-04-12T12:002373030-60.926014
2013-04-12T12:002436227-59.5
2013-04-12T12:002474325-57.5
2013-04-12T12:002509724-59.1
2013-04-12T12:002607620-59.7
2013-04-12T12:002627020-57.529013
2013-04-12T12:002683018-56.9
2013-04-12T12:002711117-58.1
2013-04-12T12:002744516-55.3
2013-04-12T12:002784015-55.9
2013-04-12T12:002813314-53.9
2013-04-12T12:002885613-56.3
2013-04-12T12:002961611-55.1
2013-04-12T12:003018510-51.5
2013-04-12T12:003055510-51.3
2013-04-12T12:003070010-49.926521
2013-04-12T12:00311769-47.9
2013-04-12T12:00313189-48.5
2013-04-12T12:00318488-44.5
2013-04-12T12:00320918-44.1
2013-04-12T12:00324287-46.1
2013-04-12T12:00326037-43.7-79.7
2013-04-13T00:001061000
2013-04-13T00:00762925
2013-04-13T00:001463850
2013-04-13T00:0017608206.6-2.4
2013-04-13T00:002448753-0.1-4.1
2013-04-13T00:002770723-3.1-4.2
2013-04-13T00:003002702-4.5-5.6
2013-04-13T00:003029700-4.5-5.82855
2013-04-13T00:003108693-4.7-8.9
2013-04-13T00:003176687-4.9-9.9
2013-04-13T00:003361671-3.3-14.3
2013-04-13T00:004410586-12.7-23.7
2013-04-13T00:004673566-14.9-25.9
2013-04-13T00:004999542-16.7-30.7
2013-04-13T00:005600500-22.1-35.130020
2013-04-13T00:006426446-29.5-40.5
2013-04-13T00:007200400-34.9-45.930522
2013-04-13T00:009150300-49.1-58.131028
2013-04-13T00:009348291-50.9-59.9
2013-04-13T00:009950265-54.7-62.7
2013-04-13T00:0010047261-54.9-62.9
2013-04-13T00:0010146257-53.9-61.9
2013-04-13T00:0010320250-55.1-63.130032
2013-04-13T00:0010397247-55.5-63.5
2013-04-13T00:0010713235-56.1-64.1
2013-04-13T00:0011456209-55.9-63.9
2013-04-13T00:0011578205-56.3-64.3
2013-04-13T00:0011672202-54.9-62.9
2013-04-13T00:0011740200-52.928024
2013-04-13T00:0011837197-52.3-61.3
2013-04-13T00:0012104189-53.1-62.1
2013-04-13T00:0012347182-52.1-61.1
2013-04-13T00:0012673173-53.7-62.7
2013-04-13T00:0013058163-50.3-59.3
2013-04-13T00:0013344156-49.7-58.7
2013-04-13T00:0013513152-50.7-59.7
2013-04-13T00:0013556151-49.9-58.9
2013-04-13T00:0013600150-50.126022
2013-04-13T00:0014047140-52.5-61.5
2013-04-13T00:0014187137-51.9-60.9
2013-04-13T00:0014426132-53.3-62.3
2013-04-13T00:0014674127-53.1-62.1
2013-04-13T00:0015365114-54.7-63.7
2013-04-13T00:0015650109-57.1-66.1
2013-04-13T00:0016200100-58.925523
2013-04-13T00:001726284-58.5
2013-04-13T00:001794075-61.1
2013-04-13T00:001829571-58.7
2013-04-13T00:001843070-59.528017
2013-04-13T00:001854768-60.3
2013-04-13T00:001874266-56.9
2013-04-13T00:001949559-57.7
2013-04-13T00:001971257-56.7
2013-04-13T00:001990255-58.3
2013-04-13T00:002014653-55.9
2013-04-13T00:002056050-57.326012
2013-04-13T00:002102846-60.3
2013-04-13T00:002137443-57.9
2013-04-13T00:002163742-58.7
2013-04-13T00:002199139-56.1
2013-04-13T00:002269335-58.9
2013-04-13T00:002332632-56.5
2013-04-13T00:002358730-53.9
2013-04-13T00:002378030-54.32706
2013-04-13T00:002435527-57.7
2013-04-13T00:002485925-55.7
2013-04-13T00:002551722-57.5
2013-04-13T00:002580121-54.5
2013-04-13T00:002613220-53.3
2013-04-13T00:002636020-53.925514
2013-04-13T00:002790915-54.1
2013-04-13T00:002846014-55.9
2013-04-13T00:002926112-53.9
2013-04-13T00:002946712-51.1
2013-04-13T00:003049010-52.5
2013-04-13T00:003055210-51.3-62.3
2013-04-13T12:00761000
2013-04-13T12:00726925
2013-04-13T12:001424850
2013-04-13T12:0016598260.6-0.5
2013-04-13T12:0018558061.8-0.7
2013-04-13T12:0019267993.8-0.2
2013-04-13T12:0020487874.8-2.2
2013-04-13T12:0021427786.0-8.0
2013-04-13T12:0025067445.2-12.8

Only the first 2000 rows were shown. To view the complete dataset, download it as tab-delimited text. You can still view the full matrix in your browser, but be aware that this may crash the browser due to the huge size.